Hourly Weather Roundup
Issued by NWS Central Illinois

Home | Current Version | Previous Version | Text Only | Print | Product List | Glossary On
Versions: 1 2 3 4 5 6 7 8 9 10 11 12 13 14 15 16 17 18 19 20 21 22 23 24 25 26 27 28 29 30 31 32 33 34 35 36 37 38 39 40 41 42 43 44 45 46 47 48 49 50
663
NZUS43 KILX 290510
HWRILX

AREA WEATHER ROUNDUP
NATIONAL WEATHER SERVICE, LINCOLN IL
1200 AM CDT SUN MAY 29 2016


CITY           SKY/WX    TMP DP  RH WIND       PRES   REMARKS
BLOOMINGTON    TSTM      64  64 100 S13       30.03F VSB 1
CHAMPAIGN      CLEAR     69  65  86 S6        30.03R
DANVILLE       RAIN      70  65  86 SW6       30.01R
DECATUR        PTCLDY    73  66  78 S10       30.01R
EFFINGHAM      CLEAR     72  68  86 S6        30.04R
FLORA          PTCLDY    71  67  89 S7        30.02F
GALESBURG      CLOUDY    67  62  84 SW5       29.97R
JACKSONVILLE   MOCLDY    71  66  85 SW3       29.99R
LACON          CLOUDY    66  62  86 S3        29.97S
LAWRENCEVILLE  PTCLDY    71  68  90 S9        30.04S
LITCHFIELD     PTCLDY    70  65  84 S5        30.00S
$$


CITY           SKY/WX    TMP DP  RH WIND       PRES   REMARKS
LINCOLN        CLOUDY    66  65  97 CALM      29.99S
MACOMB         MOCLDY    69  62  77 W9        30.00R
MATTOON        CLEAR     72  65  78 SW7       30.02R
MT CARMEL AP   PTCLDY    71  66  83 S7        30.04S
OLNEY-NOBLE AP CLEAR     70  68  94 S6        30.03S
PARIS          MOCLDY    71  67  88 S6        30.03R
PEORIA         CLOUDY    65  62  90 S5        29.98R
PONTIAC        CLOUDY    67  62  84 SW13G20   30.00F
RANTOUL        CLOUDY    69  61  75 NW15      30.05R
ROBINSON       PTCLDY    68  65  92 S7        30.04S
SPRINGFIELD    MOCLDY    76  67  73 SW3       30.00R
TAYLORVILLE    CLOUDY    72  67  85 S9        30.00R
$$

...REGIONAL REPORTS...


CITY           SKY/WX    TMP DP  RH WIND       PRES   REMARKS
CHICAGO O`HARE CLOUDY    66  63  90 S6        29.96R
KANKAKEE       CLOUDY    66  57  73 SW18G26   30.02R
MOLINE         CLOUDY    70  59  68 S6        29.94R
MOUNT STERLING CLOUDY    66  62  85 SW6       29.99R
MOUNT VERNON   CLEAR     68  63  83 SW6       30.03F
PITTSFIELD     PTCLDY    70  64  82 SW5       30.01R
QUINCY         CLEAR     67  60  78 SW5       29.99R
ROCKFORD       CLOUDY    69  65  86 S6        29.96R
$$


CITY           SKY/WX    TMP DP  RH WIND       PRES   REMARKS
BURLINGTON     CLOUDY    68  61  78 SW8       29.96R
CEDAR RAPIDS   CLEAR     66  61  84 SW9       29.89R
DES MOINES     CLEAR     63  55  75 SW8       29.92R
KIRKSVILLE     CLEAR     65  58  78 SW7       30.00R
OTTUMWA        CLEAR     67  59  75 SW13      29.92S
ST LOUIS       PTCLDY    74  61  63 W9        30.00R
$$


CITY           SKY/WX    TMP DP  RH WIND       PRES   REMARKS
TERRE HAUTE    PTCLDY    71  65  81 S9        30.03S
EVANSVILLE     PTCLDY    72  66  81 S5        30.06S
INDIANAPOLIS   CLOUDY    71  65  81 S9        30.03S
LAFAYETTE      PTCLDY    70  65  84 S3        30.01S
MADISON        CLOUDY    68  63  84 S8        29.90S
MILWAUKEE      LGT RAIN  66  63  90 S8        29.94S
$$






USA.gov is the U.S. government's official web portal to all federal, state and local government web resources and services.